Powrót do katalogu

THOR ABLESTAR DEB

AktywnyLEO
NORAD 144·DEBRIS·🇺🇸 United States

Wystrzelony Jun 29, 1961 z Cape Canaveral Space Force Station

Loading…

Następne Przeloty (najbliższe 24 godziny)

TLE

ŚwieżeSource: Space-Track

Epoka: Sep 13, 2026, 21:52 UTC

1 00144U 61015AE  26256.91147441  .00000145  00000-0  17509-3 0  9999
2 00144  66.4994 168.4614 0048142 297.1608  62.4565 13.91715305296999

Śledź THOR ABLESTAR DEB w czasie rzeczywistym z AllMySat

Download on the App Store